Theta_e
339 339 338 338 338 337 336 331 323 324 328 329 329 327 328 331 331 331 331 332 332 332 334 335 336 335 334 335 334 334 334 333 333 331 330 327 322 324 326 326 328 328 328 328 327 326 325 324 325 325 325 325 324 324 324 323 323 323 323 323 323 323 323 323 323 323 323 323 323 322 322 322 322 324 323 323 323 322 320 320 321 323 324 325 325
338 338 339 338 338 337 337 334 328 326 327 328 329 329 329 332 334 334 334 334 333 332 335 336 335 334 334 334 334 333 333 333 333 331 330 326 324 327 327 326 326 326 327 328 327 326 326 325 325 325 325 324 324 324 323 323 323 323 323 323 323 323 323 323 323 322 322 322 323 322 322 323 322 323 324 324 324 324 323 321 320 321 323 324 324
338 338 339 338 338 338 337 336 334 331 329 328 328 328 330 333 335 335 335 336 335 335 336 336 334 334 334 334 333 333 333 332 332 331 330 327 326 328 327 326 324 323 326 327 327 327 326 327 326 326 325 324 323 323 323 323 323 323 323 323 323 323 323 323 322 322 321 321 322 323 323 324 323 323 323 324 325 325 324 323 321 320 321 322 323
337 338 338 338 338 338 338 336 335 334 332 331 329 329 329 331 333 334 335 335 336 337 337 336 335 333 333 333 333 333 333 332 331 331 330 328 328 329 327 325 322 321 324 326 327 327 327 328 327 325 324 324 324 323 324 323 323 323 323 323 322 322 323 322 322 321 321 321 321 322 322 323 323 323 323 324 325 325 325 324 322 320 320 321 322
338 338 338 338 338 338 338 337 336 335 334 333 332 331 331 330 331 332 333 335 336 337 336 337 336 334 333 333 333 333 332 331 331 331 330 330 330 329 328 325 322 320 323 325 326 327 327 326 325 325 324 324 324 324 324 323 324 323 322 322 323 323 323 322 322 320 319 320 321 322 323 322 322 322 323 324 324 325 324 324 323 321 321 321 321
338 338 338 338 338 338 338 338 337 336 335 334 333 333 333 333 332 331 332 335 336 336 336 336 336 335 334 333 333 333 332 332 332 331 331 330 330 329 329 327 323 323 324 323 324 327 327 325 325 324 324 324 324 325 324 323 323 323 322 323 324 324 324 323 323 320 319 320 321 322 323 322 322 322 322 322 323 324 324 324 323 322 322 321 321
338 338 338 338 338 338 337 337 337 336 336 335 334 334 334 334 333 332 332 334 336 336 336 336 336 336 335 332 332 333 332 332 332 331 331 331 331 330 330 328 326 327 325 322 323 326 326 325 325 324 324 325 325 325 324 322 323 323 323 324 324 324 324 324 324 321 319 319 319 320 322 322 322 322 321 321 322 322 324 324 323 322 322 322 322
337 337 338 337 337 337 337 337 337 337 337 336 335 335 334 334 333 332 332 333 335 336 336 336 336 336 335 333 332 332 332 332 332 332 331 331 331 331 330 330 329 329 328 322 320 324 326 325 325 323 324 325 325 325 325 323 323 323 324 325 324 324 325 324 324 322 321 319 317 319 321 322 322 322 322 321 321 322 323 324 324 323 322 322 321
336 336 337 337 337 337 338 338 338 337 337 336 336 335 335 334 333 332 332 332 334 335 335 335 335 335 335 333 331 332 332 332 332 332 331 331 331 331 331 331 330 330 330 325 320 321 324 325 325 321 321 324 325 325 325 323 324 325 325 325 324 324 324 325 323 322 322 319 316 319 320 321 322 322 322 323 322 321 323 324 324 323 322 322 321
336 336 337 338 338 338 337 337 337 337 337 336 336 336 336 335 334 333 332 332 332 333 334 334 335 335 335 332 331 332 331 331 333 332 332 331 331 331 331 332 331 330 331 329 324 321 322 324 324 321 320 323 323 324 325 323 324 325 325 326 325 325 325 324 324 323 323 321 318 319 321 321 322 322 323 323 323 322 323 324 324 324 323 323 322
334 334 335 336 338 337 337 337 336 337 337 337 336 336 336 335 335 334 333 333 333 332 333 333 334 334 334 332 331 331 331 332 333 332 331 331 331 331 331 332 332 331 331 330 328 324 322 322 323 321 322 322 318 321 325 322 323 326 325 326 326 325 325 325 325 324 324 324 320 318 321 322 322 323 323 323 323 323 323 324 324 324 324 324 323
334 334 334 335 337 337 337 337 337 337 338 338 337 336 336 335 335 335 334 334 333 333 333 333 333 333 333 332 331 331 331 332 332 332 331 331 331 331 331 332 332 332 331 330 329 327 325 322 320 320 319 318 313 317 323 320 321 325 325 326 327 326 326 326 326 325 325 325 322 318 319 322 323 323 324 324 324 324 324 324 325 325 324 324 323
336 336 336 336 336 337 337 337 337 338 338 338 338 337 337 336 335 335 335 334 334 334 333 333 333 333 333 332 331 329 330 332 333 333 332 331 332 332 332 332 332 332 331 331 330 329 327 321 318 316 314 314 309 311 319 319 320 325 325 327 328 327 328 328 327 326 325 325 324 320 318 321 323 323 324 324 324 324 324 324 325 325 324 323 323
336 336 336 337 337 338 337 337 338 338 338 337 337 337 337 337 336 335 334 334 335 335 334 333 332 332 331 331 330 329 329 331 332 333 332 332 332 332 332 332 332 332 331 331 330 329 328 321 315 313 310 310 307 308 314 318 322 325 326 328 328 328 329 329 328 327 326 325 325 322 318 319 322 322 323 324 324 324 325 324 325 324 324 323 323
336 337 337 338 338 338 338 337 338 338 338 337 337 337 337 337 336 335 334 334 334 334 334 333 332 331 330 330 332 332 331 330 331 332 332 332 332 332 333 332 333 332 331 331 330 329 329 323 316 314 311 309 309 309 313 319 323 325 327 329 329 329 329 329 329 327 326 325 325 324 319 317 320 322 323 324 323 324 324 324 324 324 324 323 322
337 337 337 337 337 337 337 337 337 337 337 337 336 336 336 336 336 335 333 333 333 332 333 333 333 332 330 330 331 332 334 332 329 331 332 332 332 332 332 332 332 333 332 330 330 329 329 326 320 318 315 312 312 312 316 321 324 325 327 328 329 329 329 329 329 327 326 325 325 325 321 317 319 322 322 322 322 322 323 324 324 324 323 322 322
336 336 336 336 335 335 335 335 335 335 336 335 335 334 334 334 335 335 333 332 330 330 331 332 333 333 331 330 331 332 334 332 330 331 331 331 332 332 332 333 333 333 332 331 330 329 329 328 325 323 320 318 317 317 319 322 324 325 326 328 329 329 329 329 329 328 326 325 325 325 322 319 320 322 321 321 320 320 321 323 323 323 322 321 321
336 335 335 335 334 334 334 334 333 333 334 334 332 332 332 332 333 333 331 331 330 330 331 330 332 333 331 331 331 332 332 331 333 335 332 331 332 332 332 333 333 332 331 331 330 329 329 329 328 327 324 323 322 322 323 324 325 326 326 327 328 328 329 329 329 329 326 325 325 325 323 320 319 320 320 319 319 319 320 321 321 321 321 320 318
335 334 334 333 333 333 333 333 333 332 332 332 331 331 332 332 332 332 330 330 330 330 330 330 331 332 332 331 329 329 330 330 333 336 335 333 332 333 333 333 333 332 331 331 331 330 330 329 330 329 327 325 325 326 326 326 326 327 327 327 327 327 328 329 329 328 325 324 325 325 324 321 318 318 319 319 319 319 317 317 318 320 320 318 315
333 333 333 333 333 333 333 332 332 332 331 331 331 332 332 332 332 332 331 331 330 330 330 330 329 330 331 331 329 329 329 329 330 331 333 334 333 332 332 333 332 331 331 331 331 331 330 330 330 330 329 328 328 328 328 328 328 328 327 327 327 327 328 328 329 327 325 324 325 325 324 322 320 319 320 320 319 319 315 314 318 319 318 316 313
332 332 332 333 333 333 332 331 331 331 331 331 331 331 331 332 332 332 331 331 331 330 329 329 329 330 330 330 330 329 329 328 328 328 329 332 333 333 332 331 331 331 331 331 331 331 330 330 330 330 330 329 329 329 329 329 329 329 329 327 327 327 327 328 328 326 324 324 325 325 323 323 322 321 320 320 320 319 314 314 318 318 316 313 310
330 330 331 331 332 332 332 331 331 331 331 331 331 331 331 332 332 333 332 332 331 331 330 330 330 330 330 330 330 329 329 328 328 328 328 329 331 332 332 331 331 331 331 331 331 331 331 331 331 330 330 330 330 329 329 329 329 329 329 328 327 327 327 328 328 326 325 323 324 324 323 323 323 322 321 320 321 318 310 311 316 315 314 314 311
328 328 329 329 329 330 330 331 331 331 331 331 331 332 332 332 332 333 333 332 332 332 332 331 331 330 330 330 330 330 329 328 329 328 328 328 330 331 330 331 332 331 331 331 332 332 331 331 331 331 331 330 330 329 329 329 329 329 329 329 328 327 327 328 328 327 325 323 323 323 323 324 323 323 321 320 321 316 309 311 314 314 314 315 314
326 326 327 327 328 329 329 329 330 330 330 330 330 330 331 332 332 332 333 332 332 332 332 332 331 330 330 329 330 331 330 329 329 329 329 329 329 330 329 330 331 331 331 331 332 332 332 332 332 331 331 330 330 329 329 329 329 329 329 329 329 328 327 327 327 327 324 322 322 322 323 324 324 323 322 320 319 316 313 314 314 313 315 315 315
323 323 323 325 326 327 328 329 329 329 329 329 329 329 329 330 330 331 332 332 332 332 332 332 331 330 330 329 330 331 330 330 330 329 329 329 329 329 328 330 331 330 331 331 331 332 331 331 332 331 331 330 330 329 329 330 330 330 329 329 329 328 327 327 327 327 324 320 321 322 323 324 324 323 322 321 318 316 315 315 313 313 315 314 314
319 320 320 322 323 325 326 326 326 327 328 328 329 329 329 329 329 329 329 330 331 331 331 332 332 331 330 330 330 330 330 330 330 329 328 328 328 328 328 329 330 329 330 331 331 331 331 331 332 332 331 330 330 329 329 330 330 330 329 329 329 327 327 327 327 327 325 319 319 321 322 324 325 323 322 321 318 316 315 315 315 313 313 313 313
317 317 318 319 320 321 322 322 322 324 326 327 328 328 329 329 329 328 328 328 329 330 331 331 331 330 329 329 330 330 330 331 330 329 328 328 329 329 328 330 330 329 329 330 330 331 331 331 331 332 331 330 330 330 330 330 330 330 329 329 328 327 327 327 327 328 324 317 317 321 322 324 325 323 321 320 318 315 314 316 316 313 312 313 313
315 315 316 316 316 317 318 318 319 321 322 324 325 326 327 328 328 328 328 328 328 329 329 330 330 330 329 329 330 329 330 331 330 329 329 329 329 329 328 328 330 331 330 330 330 330 331 331 331 331 331 331 330 330 330 330 330 330 330 329 328 328 327 327 327 326 319 311 314 320 322 324 325 323 320 320 319 314 313 316 315 310 309 310 311
312 313 313 313 313 313 314 315 317 318 319 320 321 321 322 324 324 325 326 327 327 328 328 328 329 329 328 328 329 329 329 330 330 330 330 330 330 329 328 327 329 330 331 331 329 329 330 331 331 331 331 331 330 330 330 330 330 329 329 329 329 328 327 327 327 321 311 309 313 318 322 325 325 323 319 319 319 313 310 315 314 306 303 304 305
309 310 310 310 310 310 311 312 313 315 315 315 316 316 318 319 320 321 322 324 326 327 328 328 328 328 328 328 328 328 329 329 330 330 330 330 330 329 329 328 328 328 328 330 330 328 328 330 331 331 331 331 330 330 330 330 329 329 329 329 329 329 327 327 325 316 309 312 315 317 322 325 324 323 320 319 318 312 308 312 312 304 300 301 301
307 307 307 307 307 307 307 308 310 311 312 311 312 312 314 315 317 318 319 320 322 325 327 327 328 328 328 329 329 329 329 329 330 330 330 330 329 329 329 328 328 327 326 327 329 328 327 329 330 330 331 331 330 330 330 330 329 329 329 329 329 329 327 326 324 315 309 314 316 317 321 324 324 322 320 319 317 312 307 307 308 303 299 300 300
305 305 305 305 305 305 305 306 307 308 308 308 309 310 311 312 313 314 316 317 319 321 324 326 327 328 328 328 329 329 329 329 329 329 330 330 330 329 329 328 327 327 326 326 328 329 327 328 329 330 331 331 330 330 330 330 330 329 329 329 329 329 327 326 324 315 310 314 317 318 320 323 324 322 320 319 315 311 307 304 305 303 299 299 299
304 304 304 304 304 304 304 304 305 306 305 305 307 307 308 309 310 311 313 314 315 317 320 323 325 327 328 328 328 328 328 329 329 329 329 330 330 329 329 328 327 327 327 326 327 328 327 327 329 330 330 330 330 330 330 330 330 329 329 329 329 328 327 327 324 315 310 313 317 318 319 321 322 321 320 319 314 309 306 302 303 302 299 297 299
303 303 303 303 302 302 302 302 303 304 303 303 303 303 303 304 307 308 309 310 312 314 317 320 322 325 327 329 328 328 328 329 329 329 329 329 329 329 329 329 328 327 327 327 327 327 327 327 329 329 329 330 330 329 329 330 330 329 329 329 329 329 327 326 323 316 311 313 317 318 318 318 319 320 320 319 315 309 303 301 303 302 299 297 298
303 302 302 302 301 301 301 301 302 302 301 300 300 300 300 300 302 305 307 308 308 310 313 316 319 322 324 327 328 328 328 328 329 329 329 329 329 328 329 329 328 328 328 327 327 327 327 327 328 328 328 328 329 329 329 329 330 329 329 329 329 329 328 326 323 317 312 312 316 318 318 316 316 318 319 319 317 310 301 300 302 302 299 297 297
303 302 301 301 300 300 300 300 301 301 300 299 299 299 299 298 298 300 303 305 306 308 310 313 316 319 322 325 327 328 328 328 329 329 329 329 329 328 328 328 328 328 328 328 327 328 328 327 327 327 328 328 328 329 328 328 329 329 328 329 328 328 328 326 322 318 313 310 312 316 316 315 314 316 317 317 316 310 301 299 301 300 298 298 297
302 301 301 300 300 300 300 300 300 300 299 298 298 298 298 299 298 299 300 302 303 305 307 310 313 315 319 322 325 327 328 328 328 329 329 329 329 328 329 329 329 328 328 327 327 328 328 327 326 327 327 327 328 328 328 327 326 326 326 326 327 326 326 324 321 318 315 310 310 314 315 314 313 313 313 313 311 308 302 300 301 299 298 298 298
303 301 300 300 300 299 299 299 299 299 298 298 297 297 298 299 299 299 300 301 302 303 304 307 310 312 315 319 323 326 327 328 328 328 329 329 329 329 329 330 329 328 328 328 327 327 328 327 326 326 327 327 327 327 327 326 325 324 324 323 323 323 323 322 320 318 316 311 309 312 315 315 313 311 310 308 306 307 304 301 300 299 297 298 298
302 301 300 300 300 299 299 299 299 298 298 297 296 297 297 298 299 298 299 300 301 302 304 306 308 310 313 315 319 324 326 328 328 328 328 329 329 328 329 330 330 329 328 328 327 327 327 327 326 325 326 327 327 327 326 326 324 324 323 321 319 320 321 321 320 319 317 313 308 308 311 312 311 309 307 306 305 306 305 302 301 299 297 298 298
301 301 300 299 299 299 299 299 298 298 297 296 296 296 297 298 298 298 299 299 300 302 304 306 308 309 311 312 315 320 324 327 328 328 328 328 328 328 328 329 330 329 328 327 327 327 327 327 326 325 326 326 327 326 324 323 322 322 322 321 320 319 319 319 320 318 316 313 309 308 309 312 311 309 308 308 306 306 306 304 302 300 298 298 298
300 300 299 299 299 299 298 298 298 298 297 296 296 296 296 297 298 298 298 299 300 301 303 305 307 308 310 311 313 317 321 324 326 327 328 328 328 327 328 328 330 330 329 327 327 327 327 327 325 325 325 325 326 326 323 322 322 321 321 321 320 320 319 318 317 317 315 313 309 308 308 309 310 310 310 311 310 309 307 305 304 302 300 299 298
299 299 298 298 298 298 298 298 297 297 296 296 296 296 297 297 297 298 298 299 300 301 302 303 305 307 308 310 312 315 318 321 323 325 327 327 328 328 328 328 330 331 330 328 327 326 326 326 325 325 325 325 325 325 324 322 322 322 321 320 319 319 318 316 315 315 316 314 311 308 306 305 306 307 309 310 309 308 306 304 304 302 300 299 299
299 298 298 297 297 297 297 297 297 297 296 296 296 296 297 298 297 297 297 298 299 300 301 301 303 304 305 308 310 313 315 318 320 323 325 326 327 327 328 328 328 330 331 329 327 326 326 326 325 325 324 325 325 325 325 324 323 322 321 320 319 318 317 315 314 315 316 315 312 309 307 306 306 306 306 305 304 303 302 301 302 302 301 301 301
298 298 298 297 297 297 296 296 296 296 296 296 296 296 297 298 298 297 297 297 298 299 299 300 301 301 302 304 307 310 312 314 317 320 324 326 327 327 327 327 327 328 330 330 328 327 325 325 325 325 324 324 325 325 325 325 323 322 322 320 319 318 317 315 315 315 316 316 314 310 308 308 306 306 307 304 301 301 300 300 301 302 302 302 303
298 298 298 297 297 297 296 296 296 295 295 295 295 296 297 297 298 297 296 297 297 298 299 299 299 300 300 300 302 305 308 311 313 315 318 322 326 326 327 326 326 327 328 329 329 328 326 326 325 325 325 325 325 325 326 326 324 322 321 320 319 318 317 316 316 316 316 316 314 311 309 309 308 308 307 305 301 300 300 300 301 302 303 304 304
298 298 297 297 297 297 296 296 296 295 295 295 295 296 296 297 297 297 296 296 296 297 298 298 298 298 299 299 300 301 303 306 309 309 311 314 319 323 326 326 326 327 327 328 328 327 326 326 325 325 325 325 325 325 325 326 325 323 322 320 319 318 317 317 316 315 315 315 314 312 310 310 310 309 308 307 304 303 302 301 302 303 304 304 303
298 297 297 297 297 296 296 296 296 295 295 295 295 295 296 296 297 296 295 296 296 296 297 297 297 298 297 298 299 299 299 302 304 305 306 309 313 317 322 326 326 326 327 327 328 328 327 327 325 325 326 325 325 325 325 325 325 325 323 323 321 318 317 317 317 315 314 315 315 314 311 310 310 310 309 308 307 306 305 305 304 304 304 303 303
298 297 297 297 297 296 296 296 295 295 295 295 295 295 295 296 296 295 295 295 295 295 296 297 297 297 297 297 298 298 298 299 302 304 305 308 311 313 317 323 325 325 325 326 327 327 328 327 327 326 326 326 326 326 326 325 324 324 324 322 321 319 316 316 316 315 315 315 315 315 312 309 309 310 308 307 306 306 305 305 305 304 303 303 303
299 298 297 297 296 296 296 295 295 295 295 295 295 295 295 295 295 295 294 294 294 294 295 296 297 296 296 297 297 297 297 298 301 303 304 306 309 311 314 319 323 324 323 324 326 327 327 327 327 327 326 326 326 325 326 325 324 324 324 322 321 319 317 316 315 314 315 315 314 314 312 308 308 308 306 305 305 305 305 305 305 304 303 302 302
299 299 298 296 295 295 295 295 295 295 295 295 295 295 295 295 295 294 294 294 293 293 294 295 296 296 296 296 296 296 296 298 300 302 303 304 307 310 313 316 321 323 322 323 324 325 325 326 325 326 325 325 326 325 325 326 325 325 324 323 322 320 318 317 315 313 313 313 313 313 311 307 306 307 305 304 304 304 304 305 304 303 303 304 304
299 299 298 296 295 295 295 295 295 295 295 295 295 295 295 295 295 294 294 293 293 293 293 294 295 295 295 296 296 295 296 298 300 301 303 304 306 309 311 315 319 322 322 323 324 324 324 324 323 325 325 325 325 325 324 325 324 324 324 324 323 321 319 318 315 313 313 313 312 312 310 307 305 306 305 305 303 302 302 303 303 304 304 304 303
Wind_Speed
11 13 14 13 11 9 7 5 7 11 14 13 12 10 9 9 8 8 10 11 11 11 10 10 13 12 12 13 14 11 11 13 12 10 7 5 6 5 4 5 9 11 10 11 10 9 8 9 8 8 7 8 8 9 9 9 9 9 10 10 10 10 10 10 10 10 10 10 10 11 12 12 13 13 14 15 15 16 16 15 14 14 12 11 11
14 14 14 14 13 12 10 8 7 9 12 14 14 13 11 10 9 9 10 11 11 11 12 13 14 12 13 15 15 11 10 13 13 11 9 7 7 5 4 6 9 11 11 11 11 10 10 9 9 9 8 8 9 9 9 9 10 10 10 10 10 9 9 9 9 10 10 10 10 10 11 11 13 13 13 14 14 15 16 16 14 13 12 12 11
16 15 14 14 14 14 14 12 10 10 11 12 13 14 14 13 12 12 13 13 12 12 14 14 12 11 13 14 14 12 10 12 13 12 10 9 8 6 5 7 9 11 12 12 10 9 11 10 9 9 9 9 9 9 9 10 10 10 10 10 10 10 9 9 9 9 10 10 9 9 10 10 11 12 13 13 14 14 14 15 15 13 12 12 11
16 15 14 14 13 14 15 16 15 13 12 12 12 14 15 15 15 15 16 16 15 16 16 15 12 11 11 11 12 12 11 12 13 12 11 10 9 6 6 7 8 10 11 12 11 9 10 11 8 9 10 10 10 10 10 11 10 10 11 11 10 10 9 9 9 9 10 10 10 9 10 10 10 11 12 12 13 13 14 14 14 15 15 14 12
16 16 15 14 13 13 15 17 17 16 14 13 13 14 16 17 17 18 19 18 18 19 19 17 15 14 12 10 10 11 12 12 12 11 11 11 10 8 6 7 8 9 10 12 13 11 10 12 11 10 11 11 11 11 11 11 11 11 11 11 10 9 8 8 8 9 10 11 11 10 10 10 10 10 11 11 12 12 13 14 14 15 17 16 15
15 16 15 14 13 14 15 16 17 17 17 17 16 16 17 17 17 18 19 19 20 20 20 18 16 15 15 12 9 10 10 11 12 11 12 12 10 9 7 7 8 8 10 11 14 14 12 13 13 12 12 12 12 12 12 12 12 11 10 10 9 9 8 7 7 8 10 11 11 11 9 9 10 10 10 10 11 12 12 13 14 15 16 17 17
16 16 16 15 14 14 15 15 15 17 19 19 19 19 19 18 18 18 18 18 19 20 19 19 17 17 17 15 12 10 8 8 10 11 13 13 11 10 9 9 8 7 9 11 14 16 14 15 14 13 13 13 13 13 12 12 13 12 10 10 10 10 9 8 7 7 9 10 12 12 10 10 10 10 11 11 11 11 11 13 14 15 15 16 17
15 16 16 15 16 16 15 14 13 15 17 19 21 21 21 21 20 19 18 17 17 19 19 18 19 19 19 18 16 15 11 7 10 13 15 14 13 11 10 10 10 9 9 11 14 16 16 16 15 13 14 14 13 14 13 13 13 12 12 11 11 11 10 10 9 8 8 8 10 12 10 10 10 10 11 12 13 12 12 12 13 15 15 17 18
14 15 15 15 16 16 15 14 14 15 16 19 20 22 22 22 22 21 20 19 18 19 19 18 19 20 21 20 17 17 15 11 11 15 17 17 15 13 12 11 11 11 10 11 13 15 17 17 16 14 15 16 15 15 14 14 14 13 13 13 12 12 11 11 10 10 9 7 9 11 11 10 10 10 10 11 12 12 11 11 12 14 16 17 18
15 15 14 15 15 16 16 16 17 17 18 19 20 22 22 22 23 22 21 20 20 20 20 20 19 20 22 19 15 15 16 14 13 16 18 17 16 15 14 13 13 13 13 12 13 15 17 17 16 14 15 17 16 16 15 15 15 14 14 14 13 13 13 12 11 11 10 7 8 10 10 10 10 11 10 11 11 12 11 11 12 14 15 16 17
14 15 15 16 16 17 17 17 19 20 20 20 21 21 22 22 23 22 22 21 21 21 21 20 19 20 21 18 16 17 17 16 16 17 19 18 17 17 18 17 15 16 15 14 14 15 16 17 17 16 16 17 16 16 16 16 16 16 16 15 14 13 14 14 12 11 10 8 8 9 11 11 11 11 11 11 11 12 12 11 12 14 15 15 16
14 15 16 17 18 18 18 19 19 20 20 21 22 22 22 22 22 22 22 22 22 21 19 18 18 19 20 17 18 19 19 20 18 17 18 19 18 19 21 20 18 18 17 16 15 16 16 17 18 18 17 17 17 17 17 17 18 17 17 16 14 13 14 15 13 12 11 10 9 9 11 12 11 11 11 11 11 11 11 11 12 14 15 15 16
13 14 16 17 18 19 20 20 20 21 23 23 23 23 22 22 22 22 21 21 23 22 20 18 15 15 16 14 15 16 17 20 19 18 19 20 19 20 24 23 20 20 19 18 17 17 17 18 19 18 18 18 17 19 19 19 19 18 17 16 15 15 15 15 14 13 12 11 10 9 11 12 11 10 11 11 11 10 11 12 13 14 15 15 14
12 14 16 18 19 19 20 20 21 22 21 21 21 21 22 22 23 23 21 20 22 23 21 17 13 13 10 7 8 12 16 19 21 20 20 22 20 20 23 23 22 22 20 19 19 20 19 18 19 18 18 19 19 21 21 21 21 19 18 16 15 15 15 14 14 13 13 12 11 10 10 12 12 11 11 11 11 9 11 13 13 14 13 12 11
11 14 16 17 19 21 22 23 23 23 21 20 21 22 23 24 23 22 20 20 22 23 21 19 17 13 6 3 3 5 10 15 21 24 23 23 23 22 22 23 23 22 21 20 21 22 21 19 19 19 19 20 21 22 22 22 22 20 18 17 16 15 14 14 13 14 14 13 12 11 11 13 14 12 11 12 11 10 10 12 13 13 12 10 9
12 14 16 16 18 21 23 24 24 24 24 24 25 25 25 26 25 23 21 20 21 23 22 23 23 15 5 1 1 1 4 8 14 23 26 24 25 25 24 23 24 24 23 22 21 23 23 20 20 20 20 21 22 22 23 22 22 20 18 17 17 15 14 14 14 14 15 14 14 13 12 14 14 12 11 12 12 11 11 12 12 12 11 10 9
11 13 13 13 16 20 22 23 23 24 26 26 25 26 26 27 27 25 24 22 22 24 23 23 26 25 16 6 1 1 3 3 5 13 22 26 26 26 25 24 25 26 25 23 22 24 24 22 21 21 21 21 22 23 23 22 21 21 20 19 17 15 14 14 14 15 15 15 15 15 14 14 14 13 12 12 12 12 11 11 11 11 10 9 8
10 11 12 12 14 17 20 22 22 22 25 26 25 25 26 27 27 25 24 24 25 24 24 25 26 29 28 20 14 9 3 3 3 3 10 20 25 26 25 25 25 25 25 24 24 26 25 23 22 22 22 23 23 23 23 22 22 21 21 21 19 17 15 14 14 16 16 15 16 16 16 15 15 15 13 12 11 12 11 11 11 11 10 9 9
11 11 12 12 12 14 16 17 19 20 23 25 23 23 25 26 27 25 24 26 26 24 26 27 23 25 31 27 23 19 10 6 5 2 2 8 16 23 25 25 24 24 25 26 26 27 27 25 23 24 24 24 24 24 24 23 22 22 22 21 20 19 16 15 16 16 16 16 17 17 17 16 16 15 14 12 11 11 11 12 11 11 10 10 9
13 13 14 13 12 13 13 15 17 19 21 22 23 24 25 25 26 26 24 23 24 26 28 26 22 24 28 27 25 24 19 12 8 5 2 1 7 14 20 24 26 26 26 27 28 28 28 27 26 25 26 26 25 24 24 24 23 23 23 22 21 20 19 17 17 18 17 17 18 18 18 17 16 15 15 13 12 11 11 12 12 12 11 10 10
13 14 15 15 15 15 14 15 17 18 18 19 20 21 22 23 24 24 22 21 23 26 28 27 27 27 26 25 24 24 23 21 16 10 5 4 3 4 11 16 19 26 29 28 28 29 29 28 27 26 26 27 26 25 24 24 24 23 23 22 21 21 21 20 19 20 19 18 18 19 19 18 17 16 16 14 12 11 12 14 14 13 12 10 10
13 14 15 15 15 15 14 15 15 16 16 17 18 20 20 21 22 22 21 20 21 22 24 26 28 30 28 24 21 19 18 16 16 14 10 8 6 4 8 11 11 20 29 30 29 30 30 29 28 28 28 27 27 27 25 24 24 24 24 22 22 22 23 23 22 22 21 20 20 19 19 18 18 17 17 15 13 12 14 16 15 14 13 11 10
15 16 16 16 17 16 16 15 15 15 16 17 18 19 19 19 20 21 21 21 20 21 23 25 25 28 28 25 24 23 19 16 18 19 14 9 7 5 9 15 14 17 24 29 31 30 29 29 29 29 29 29 29 28 27 26 24 24 24 22 22 23 24 25 25 25 24 23 22 21 20 20 19 18 17 16 13 13 15 16 15 15 14 13 12
15 17 17 17 18 18 18 18 17 17 17 18 18 18 19 20 20 21 21 21 21 22 23 23 24 27 27 27 28 28 27 25 24 23 21 17 11 5 7 13 12 15 21 24 28 31 31 29 29 30 30 29 30 30 29 28 26 24 24 23 23 23 26 27 27 27 26 25 24 23 22 21 20 19 18 16 15 15 16 16 16 16 16 16 15
16 18 18 18 19 19 20 19 18 18 19 20 19 18 18 19 20 21 22 22 22 22 23 24 23 24 27 28 29 27 27 27 25 23 24 22 15 8 8 11 9 11 17 19 23 27 30 31 30 29 30 30 30 31 30 29 27 25 24 23 24 25 27 28 29 30 27 26 26 25 24 23 21 20 19 17 17 17 18 17 17 17 18 18 17
18 19 19 18 18 18 18 19 19 19 19 20 20 19 18 18 19 20 21 23 22 22 23 24 25 24 25 27 28 27 27 27 25 22 23 23 20 14 10 9 7 8 11 17 19 19 23 29 32 30 30 31 31 31 31 30 28 26 25 24 25 27 28 30 31 30 28 27 27 26 25 24 23 21 20 18 19 20 19 19 19 19 19 19 19
18 18 19 19 19 18 18 19 19 19 20 20 21 21 20 19 20 21 21 21 20 21 21 23 25 25 25 26 27 27 29 29 27 23 24 25 25 24 16 8 5 5 6 11 15 18 22 26 29 32 30 30 32 32 31 31 29 26 25 25 26 28 29 31 32 30 28 28 28 28 27 25 25 23 21 20 21 21 21 21 21 20 20 20 20
17 18 19 19 20 19 18 19 19 20 21 21 22 22 22 21 23 23 23 22 20 20 21 21 22 23 24 26 26 27 29 30 27 25 27 28 27 26 21 13 7 4 3 5 7 13 21 22 23 30 32 31 33 34 31 31 30 28 26 26 27 29 30 31 32 30 28 28 29 30 29 27 27 24 22 23 24 23 22 23 23 22 21 21 21
18 18 19 19 20 20 20 19 18 21 22 21 22 23 21 21 22 23 24 23 21 21 20 20 21 21 22 25 26 27 29 28 28 28 29 30 28 25 22 20 14 6 4 6 5 8 17 22 22 26 31 33 34 34 33 32 31 29 28 28 28 30 31 32 32 29 28 28 30 32 31 29 28 26 24 25 25 23 23 24 24 22 22 21 21
20 19 19 20 20 21 21 20 19 20 22 21 23 25 24 23 22 22 23 23 22 21 20 20 20 20 21 24 26 28 29 28 28 30 31 31 29 27 24 25 23 15 8 5 6 12 17 22 24 25 29 34 34 34 34 33 32 31 30 29 30 30 31 33 32 30 29 29 29 32 32 31 29 27 26 27 26 24 24 25 24 22 22 22 21
22 22 21 21 21 22 22 23 21 20 21 23 26 27 27 26 25 24 24 23 22 22 21 21 21 20 20 22 25 27 28 28 28 28 30 30 31 29 26 27 28 24 18 10 6 12 18 21 26 27 27 32 35 35 35 34 33 32 31 31 31 31 32 34 33 30 30 30 30 31 32 32 31 29 29 28 27 25 24 25 24 22 22 22 22
24 24 24 23 23 23 23 25 25 22 23 27 28 29 29 29 29 28 26 25 24 23 22 22 22 20 20 21 23 26 27 27 28 28 28 30 32 31 29 29 28 26 26 18 8 10 17 21 25 27 27 30 34 36 36 35 35 33 33 32 32 32 33 35 34 31 31 31 31 31 32 33 32 31 30 29 27 25 24 24 24 22 22 22 22
25 25 25 24 24 23 23 25 26 23 26 31 32 33 34 33 32 30 29 28 27 25 23 22 22 21 20 21 22 25 27 27 28 29 29 30 31 30 29 29 28 29 28 22 13 10 14 19 22 25 28 29 32 36 36 36 36 35 34 33 34 34 35 37 35 32 33 33 32 32 32 33 33 32 31 30 27 25 24 25 24 23 22 23 22
24 25 25 24 24 23 23 24 24 24 29 33 33 35 36 35 34 33 31 30 29 27 26 24 23 22 22 21 21 23 26 28 29 29 29 31 30 30 30 29 29 31 30 27 20 13 12 16 19 22 27 29 32 34 37 38 38 37 36 36 36 36 37 38 36 34 34 34 34 33 33 33 33 33 32 30 28 25 24 25 25 24 23 23 23
24 26 25 25 25 23 23 24 23 24 30 33 33 36 37 35 34 33 31 31 30 28 27 26 25 23 22 22 23 22 23 26 29 30 30 30 30 30 31 31 30 30 31 30 26 18 15 18 19 20 24 29 32 34 37 39 39 39 39 39 39 38 37 38 37 35 35 35 35 34 33 34 34 34 33 32 29 27 25 26 26 25 24 23 23
25 26 27 26 25 23 22 24 22 23 28 32 35 39 40 37 33 33 32 31 30 29 27 26 25 24 23 23 24 24 22 24 26 29 29 29 29 29 30 31 31 30 31 32 30 24 19 17 20 23 25 28 31 32 34 36 37 39 40 39 39 39 39 39 38 36 35 35 36 35 34 34 34 34 34 32 30 27 26 26 27 26 25 24 24
24 26 27 26 26 24 22 22 22 24 28 31 35 38 40 39 36 34 33 31 30 29 28 26 25 25 24 23 24 25 23 22 24 26 28 29 29 29 29 30 30 30 30 32 32 28 22 18 20 23 23 25 27 29 32 34 32 32 33 35 36 36 36 37 38 37 36 36 36 36 35 34 34 34 34 32 31 28 26 27 28 27 26 25 24
23 25 27 26 25 24 22 22 23 26 29 31 33 37 39 41 41 37 33 32 31 30 28 27 26 26 25 24 23 24 24 24 24 26 28 29 30 29 28 29 30 30 29 30 30 28 26 23 20 20 22 25 24 25 30 35 33 32 31 28 28 31 33 35 37 37 36 37 37 38 37 36 36 35 34 33 31 29 27 27 29 28 27 26 25
22 23 26 25 25 24 24 24 25 26 30 32 35 39 40 41 42 39 34 31 31 30 29 29 28 27 26 25 23 23 25 25 26 27 28 28 29 29 29 29 29 29 29 29 28 27 26 24 20 21 25 27 24 23 28 34 32 29 30 26 23 28 33 35 37 37 36 37 38 38 38 37 36 35 34 33 32 30 28 28 29 28 27 26 25
23 23 25 25 24 25 25 25 25 26 31 34 36 39 41 41 40 38 34 31 30 31 31 31 30 28 27 26 24 23 24 25 26 27 28 28 28 29 29 29 29 29 28 28 28 26 25 24 21 23 26 26 24 22 25 29 25 23 30 33 30 31 34 35 37 37 36 37 38 39 40 38 37 36 34 33 32 31 30 29 29 29 28 27 25
24 24 24 25 25 26 26 26 26 27 31 35 36 38 40 40 39 37 35 33 30 30 32 33 32 31 29 28 26 24 24 25 26 28 29 30 30 30 30 30 30 29 27 27 27 27 25 23 21 23 24 23 24 23 24 29 31 30 34 35 31 31 34 33 32 33 35 36 38 40 41 41 40 38 37 36 35 34 32 30 31 30 29 27 26
25 26 26 26 27 27 27 27 27 28 31 36 38 39 39 38 38 37 36 34 31 29 31 31 31 30 29 29 28 26 25 25 26 28 30 31 31 32 32 31 30 30 28 26 26 27 26 23 21 22 20 20 25 28 27 32 36 33 33 34 30 27 27 23 22 28 34 34 35 39 41 41 41 39 38 38 37 35 34 33 33 32 30 28 26
25 26 28 28 29 29 28 28 28 28 31 37 40 40 39 38 36 35 35 34 32 30 31 30 29 29 29 28 27 26 26 26 27 29 30 31 32 33 34 34 33 32 31 29 26 26 27 24 24 24 22 20 26 31 32 33 33 31 34 37 32 26 24 20 16 23 33 36 35 37 39 40 41 40 39 39 38 36 35 34 33 32 30 28 26
25 26 27 28 29 29 29 29 30 29 31 37 40 40 40 38 36 33 33 34 33 30 30 31 30 31 31 30 28 27 26 25 26 28 30 33 34 34 35 36 37 36 35 33 30 29 28 25 24 25 25 25 28 31 32 32 32 33 35 35 32 29 28 25 21 24 33 39 37 34 35 38 39 39 39 39 38 36 35 34 33 32 31 29 27
27 27 28 28 29 30 30 31 31 30 32 37 40 40 41 40 37 34 32 34 33 29 28 30 31 32 32 30 29 30 29 27 27 26 27 30 33 34 35 35 37 39 39 37 35 33 32 30 27 26 29 30 30 32 36 36 35 34 32 31 33 33 30 30 31 31 34 40 40 32 29 34 37 37 38 38 37 37 36 34 34 33 32 30 27
27 28 28 28 29 29 30 31 31 31 33 37 39 40 41 41 39 35 32 33 33 31 29 30 31 32 32 29 28 31 32 32 30 29 28 27 28 30 33 35 36 38 41 40 38 35 35 34 32 31 33 35 35 36 39 40 39 37 36 36 37 37 34 32 31 29 29 35 38 30 22 27 34 34 34 35 35 36 36 35 34 34 32 30 27
27 27 27 28 28 29 30 30 31 32 33 36 40 41 41 42 41 38 34 33 33 33 32 31 31 33 33 30 29 30 32 34 34 32 30 28 27 27 29 33 35 37 39 41 40 38 37 38 37 35 36 38 38 37 37 37 39 41 41 42 40 37 32 27 23 22 24 30 36 30 19 22 31 30 28 30 30 30 32 32 32 33 31 29 27
26 28 28 27 28 29 30 31 32 33 34 36 39 41 42 43 42 39 36 34 35 34 32 31 34 35 34 32 30 30 33 36 36 33 31 28 28 28 26 29 34 34 35 38 39 39 39 39 38 37 37 36 37 37 36 35 38 38 32 28 29 28 24 19 18 21 25 29 34 33 21 19 27 27 23 22 23 23 24 24 25 26 26 25 24
25 27 28 28 28 29 31 31 31 33 35 37 39 41 42 43 42 40 37 34 35 35 32 31 34 35 34 32 31 31 35 38 37 35 32 29 28 28 26 26 29 29 29 32 34 35 37 38 38 38 37 36 36 36 36 35 37 37 30 23 25 28 24 17 13 19 27 29 33 35 25 20 26 27 20 17 17 17 17 18 19 19 20 22 23
23 25 27 28 28 29 30 31 31 32 34 37 39 40 42 43 41 40 37 34 35 37 35 32 33 34 35 34 32 32 36 37 36 35 33 30 28 27 25 26 25 24 26 29 30 30 33 35 37 37 36 36 35 34 34 35 35 36 36 33 32 32 27 20 16 18 21 26 34 35 24 20 26 28 23 18 11 12 16 19 20 21 22 25 27
20 21 25 28 29 29 29 30 31 32 33 36 38 39 41 42 41 40 38 35 35 37 36 33 32 35 37 37 36 35 37 36 34 34 33 29 28 26 24 23 23 24 27 29 29 29 30 31 33 34 33 34 34 32 32 33 31 33 39 39 38 36 31 26 24 19 11 18 34 37 25 23 28 30 27 20 10 8 15 22 25 28 31 33 32
Wind_Direction
226 231 240 246 249 248 241 235 220 216 219 221 222 219 213 209 213 224 227 233 243 257 271 282 293 275 243 244 242 233 230 223 218 216 212 194 178 172 173 168 170 181 184 178 176 178 179 173 175 180 172 170 168 164 164 158 154 152 147 143 138 136 133 129 126 119 115 110 107 109 108 108 108 103 99 97 93 92 97 107 117 117 115 115 114
223 227 233 239 246 253 251 244 226 216 222 224 225 228 227 223 229 236 240 249 255 265 275 284 292 267 228 228 229 228 233 222 217 218 214 198 183 184 184 186 193 195 191 185 181 181 183 176 176 182 174 175 176 170 169 163 158 158 152 147 143 141 137 133 129 123 120 115 111 113 114 112 111 110 107 103 99 94 92 96 108 120 121 118 119
225 225 226 230 239 245 249 248 238 227 230 231 228 232 235 237 245 247 247 253 259 266 271 277 279 249 217 217 219 223 227 218 215 216 215 205 191 194 195 197 205 199 196 195 191 189 189 185 177 178 179 181 181 175 172 166 164 164 157 152 149 145 142 137 133 128 125 121 116 115 118 117 112 114 115 108 103 98 96 93 92 105 121 121 120
232 228 222 220 229 239 245 247 245 239 236 235 234 235 238 243 249 254 256 258 258 259 263 270 269 248 223 217 216 220 223 214 212 214 214 207 198 203 199 197 205 206 203 195 197 197 186 190 187 180 185 184 181 178 176 171 168 167 164 159 155 149 147 145 143 139 134 128 124 121 122 125 122 122 120 113 107 101 99 97 91 96 108 112 112
240 239 233 224 227 238 244 247 247 243 239 238 238 239 241 245 249 257 263 259 255 253 257 265 267 256 244 232 216 213 217 214 215 217 213 207 206 208 197 194 200 208 210 201 201 196 186 196 196 191 192 187 184 181 180 177 171 174 170 160 153 147 144 143 146 145 139 134 131 127 126 129 132 132 128 120 114 108 104 103 100 100 102 104 104
246 244 245 241 239 242 245 247 247 244 242 241 240 243 246 250 253 258 264 262 256 254 255 259 262 258 253 245 221 200 204 211 218 222 214 208 209 208 197 197 203 208 215 214 202 193 198 203 194 195 196 189 189 186 188 186 178 181 172 158 154 153 150 143 142 139 137 139 139 135 131 130 132 135 136 129 122 118 112 109 107 106 106 105 103
253 249 248 250 251 249 249 249 249 247 247 247 245 246 248 253 256 255 259 263 260 256 254 255 256 256 254 247 227 203 199 206 213 220 218 212 210 210 206 204 209 215 219 217 201 193 204 208 198 197 195 191 193 191 193 189 183 182 173 167 164 160 158 151 144 136 135 144 147 142 138 138 135 133 134 132 133 131 121 116 115 113 112 110 107
256 253 249 250 253 254 257 259 258 254 253 255 253 251 251 254 256 252 253 258 259 256 255 256 256 256 254 246 232 215 214 218 215 218 218 216 214 213 214 214 214 220 222 216 205 199 206 212 212 205 194 194 194 193 195 190 186 184 178 176 171 165 162 158 154 144 137 144 149 145 143 148 143 136 136 134 137 140 130 123 122 119 117 115 113
259 257 251 249 250 255 262 267 266 262 257 257 257 256 256 256 255 250 248 252 257 257 257 257 257 258 254 244 234 225 222 225 221 216 214 214 215 214 218 226 223 221 224 221 211 206 210 216 221 211 196 195 194 194 198 192 187 187 185 182 174 172 169 164 160 153 148 146 147 146 145 150 149 144 142 137 136 141 137 128 127 127 124 122 120
263 264 262 257 255 258 265 269 270 267 259 254 254 256 258 258 255 250 247 250 254 256 258 258 258 259 254 239 232 235 230 226 220 214 213 213 215 219 225 230 228 227 227 225 217 213 215 217 219 213 199 198 198 196 199 196 190 190 191 186 180 179 176 171 164 158 158 153 143 143 147 151 151 151 146 139 138 142 141 132 132 134 133 130 126
269 270 273 273 269 266 266 268 268 265 260 255 254 254 256 258 257 253 251 250 251 253 256 259 259 259 257 247 242 246 240 232 223 218 220 221 221 223 227 229 228 230 230 226 222 219 220 218 215 214 206 205 203 196 200 201 194 194 194 188 185 184 181 176 168 164 165 161 147 141 150 154 151 151 148 144 142 144 144 137 135 137 138 136 132
274 272 273 276 276 274 272 270 268 266 265 266 265 265 264 264 264 262 257 253 251 251 253 256 258 257 258 257 247 241 239 235 229 227 227 227 227 223 224 229 228 228 229 226 225 223 222 220 217 217 213 210 207 199 200 203 199 198 197 193 189 188 189 184 173 171 172 168 159 147 150 154 154 154 152 149 145 145 147 143 138 137 137 135 134
276 273 272 274 275 274 273 271 268 268 268 270 272 273 274 272 271 269 264 258 253 251 251 250 251 253 256 257 248 242 243 238 230 231 230 226 228 224 223 228 227 225 227 225 227 226 223 222 221 220 215 210 209 202 200 203 202 201 201 201 199 196 199 194 181 178 178 174 169 161 153 156 161 163 160 153 145 147 152 149 144 140 138 137 134
277 275 276 277 279 279 278 276 274 274 274 272 272 273 275 276 274 271 267 261 257 254 249 242 238 241 248 266 271 264 259 248 237 236 232 225 225 222 219 222 226 226 224 224 228 227 224 223 222 219 213 210 209 203 200 203 204 203 204 208 210 207 207 202 189 184 183 178 177 173 160 161 169 173 167 157 147 148 153 152 152 148 147 146 142
281 273 272 276 281 282 282 281 280 282 283 279 277 277 277 278 275 271 268 260 256 253 246 241 236 233 238 263 269 266 259 249 240 238 235 228 226 222 216 219 225 226 223 224 227 225 222 222 220 216 212 210 209 205 202 203 205 205 205 211 217 217 215 210 197 189 186 183 184 181 168 165 172 175 172 164 155 153 155 155 156 156 156 157 161
282 273 273 279 282 280 280 281 281 284 285 282 281 281 280 281 278 272 266 259 258 257 251 244 236 227 213 239 226 191 243 238 233 236 235 230 229 226 221 221 224 223 224 227 227 223 219 219 219 217 214 211 209 208 206 207 208 209 208 213 219 221 223 218 205 193 189 189 190 186 175 169 171 177 179 172 168 166 163 161 160 162 166 168 172
287 283 286 286 283 283 285 287 288 288 288 287 287 286 285 282 278 272 262 254 255 259 257 248 239 232 221 211 194 197 248 225 219 238 232 227 229 227 222 222 224 223 225 228 226 221 219 219 220 218 216 213 210 210 211 212 213 214 214 216 218 224 226 217 204 194 190 193 196 190 181 176 176 182 184 178 178 176 169 169 171 170 173 175 168
306 303 306 298 288 287 289 291 295 294 293 293 288 284 286 281 273 270 265 257 250 250 254 249 243 237 228 224 222 215 214 193 185 251 231 225 227 226 223 221 223 224 225 226 223 220 220 221 222 221 217 215 213 213 214 216 219 219 220 220 219 224 224 211 199 193 192 196 199 193 185 181 180 185 187 185 187 185 176 176 178 177 177 173 164
339 327 329 325 312 304 299 295 297 297 298 297 286 278 285 286 279 276 274 263 248 240 246 248 242 235 229 225 223 219 215 205 191 184 224 227 225 224 224 222 221 224 223 223 221 220 222 222 223 223 221 219 218 218 219 221 223 224 226 225 222 222 219 210 199 191 194 199 198 195 189 184 185 187 189 193 196 194 187 179 175 180 181 171 166
12 355 349 347 342 335 326 311 303 302 302 299 291 285 288 291 288 284 278 268 256 244 242 241 237 234 229 223 222 219 217 222 223 209 169 212 222 222 226 225 224 225 222 221 222 223 222 222 223 225 224 224 223 223 224 225 226 227 229 226 223 220 216 211 198 187 195 202 199 197 193 189 192 192 192 196 201 201 192 179 174 182 182 171 170
28 15 4 358 353 348 343 330 317 314 310 303 297 294 293 293 291 287 281 275 271 259 247 240 237 237 233 226 225 221 220 230 237 234 226 227 222 215 217 218 225 229 225 223 225 226 225 224 225 226 227 227 227 227 226 227 228 228 228 225 222 219 215 212 198 186 194 201 202 202 197 196 197 195 197 197 201 209 196 178 176 184 180 174 174
25 21 15 9 2 353 348 344 335 329 322 314 307 302 299 298 297 294 290 287 284 273 261 255 246 238 232 224 219 215 215 226 231 226 227 232 232 222 205 200 213 228 226 223 223 224 225 225 226 226 228 229 230 230 227 226 226 226 226 222 219 216 212 210 198 190 195 198 204 207 200 201 198 194 200 199 199 208 199 182 177 180 176 172 174
13 14 14 12 8 2 357 353 349 344 337 329 320 311 307 305 302 300 298 297 295 287 276 270 257 241 232 225 219 214 209 213 218 215 213 218 222 223 209 207 213 223 226 223 221 222 223 224 226 226 227 228 229 230 228 225 223 224 224 221 218 213 210 210 199 194 199 196 202 207 201 201 197 193 199 200 198 200 194 186 180 178 176 172 175
2 6 8 7 6 5 3 1 357 353 348 342 332 323 315 308 304 302 300 298 295 291 285 279 264 245 235 229 226 222 217 219 222 217 215 216 216 223 208 204 214 226 228 225 222 223 224 225 226 227 226 227 227 228 228 225 222 223 224 221 218 212 210 210 200 198 203 198 199 206 203 200 197 195 197 198 200 195 189 187 182 180 179 176 177
3 5 5 3 3 2 2 2 359 355 352 347 342 335 325 314 309 304 301 299 295 291 288 283 272 253 240 234 229 227 226 228 229 222 220 221 220 230 216 198 206 224 223 223 223 224 225 225 226 226 226 227 227 227 227 226 223 221 222 221 218 213 211 209 202 201 205 201 199 204 204 200 197 198 196 198 201 195 188 188 186 185 183 181 179
10 7 5 5 4 4 3 2 1 359 355 350 346 342 336 327 319 312 306 302 298 294 290 286 277 261 245 237 232 232 234 235 233 227 223 222 217 217 211 199 216 223 214 217 219 219 222 223 225 226 227 227 226 226 226 227 225 220 220 219 216 213 211 207 205 205 208 204 199 202 204 199 196 198 197 200 204 196 189 189 189 190 188 184 180
14 11 10 9 6 5 5 3 4 5 2 357 352 346 342 335 329 324 318 312 304 299 299 292 279 262 244 237 233 233 236 237 236 231 227 226 221 216 208 193 219 231 211 214 215 217 220 221 223 225 225 225 224 224 225 227 226 221 219 218 214 213 211 208 207 208 209 207 200 200 203 200 197 200 200 203 208 201 191 190 192 193 190 186 181
18 14 13 12 8 5 3 1 5 9 7 2 358 352 345 339 334 330 325 321 315 307 304 297 282 265 248 242 239 236 238 240 238 235 233 232 230 225 215 202 209 219 208 215 216 224 223 217 217 222 222 222 222 222 225 226 226 222 218 217 215 212 211 208 208 209 210 207 201 199 202 202 200 203 205 208 212 206 195 193 196 196 193 189 185
21 18 15 12 7 5 3 2 6 12 9 2 359 358 354 348 341 336 331 325 317 310 306 299 289 277 261 252 246 242 243 242 238 236 235 234 235 232 223 216 220 218 201 216 216 221 221 215 213 217 219 220 221 221 222 224 225 222 218 218 216 213 211 208 208 210 209 205 200 198 201 202 201 205 210 212 213 209 199 196 200 199 195 193 190
23 21 18 13 8 6 7 7 12 17 10 360 358 358 356 355 349 344 342 335 323 312 308 302 294 286 274 260 249 244 246 245 241 239 237 236 237 235 227 221 223 220 208 213 226 222 217 215 215 215 215 216 218 220 221 222 224 222 219 219 217 214 211 207 208 211 209 204 199 197 200 202 203 206 212 214 214 212 203 200 203 202 197 195 194
25 24 22 18 14 12 12 13 19 21 9 358 358 357 355 354 351 348 347 346 335 321 312 306 297 288 278 266 253 247 247 247 244 242 240 239 238 235 231 226 225 224 218 212 231 230 219 216 218 216 214 214 215 217 218 220 223 222 220 219 218 215 210 207 208 211 209 205 200 198 201 203 204 208 213 216 216 213 208 204 205 204 199 198 197
25 25 24 21 18 16 16 17 22 21 6 358 357 354 352 351 349 347 345 345 342 333 321 311 303 293 280 269 260 255 251 248 246 245 243 241 237 233 231 229 227 226 222 214 219 236 227 224 221 215 215 215 213 213 215 218 221 221 220 220 218 214 210 208 210 211 209 206 203 201 203 204 205 210 214 217 217 213 211 209 206 203 200 200 200
28 26 24 22 19 18 18 18 23 19 6 2 1 356 353 349 346 345 343 341 340 336 330 320 311 303 287 271 263 260 257 252 250 247 242 238 235 230 227 226 222 221 221 215 215 231 229 226 221 215 213 213 211 211 211 213 216 217 217 218 218 213 210 209 210 211 209 208 205 204 205 206 207 211 215 217 218 215 213 211 207 203 202 202 202
32 30 27 24 21 21 20 18 20 16 7 6 6 1 356 350 346 344 341 339 337 334 332 326 319 314 299 278 265 262 260 256 253 250 244 238 233 228 224 222 219 220 220 217 216 221 219 215 214 212 210 208 209 210 208 210 213 213 211 212 215 213 211 210 211 211 210 209 208 207 208 208 209 212 215 218 220 219 215 212 208 204 204 204 203
35 32 30 27 24 24 23 19 19 15 9 9 9 5 2 355 348 343 340 337 334 331 328 326 322 319 308 289 274 267 265 260 255 252 248 240 232 226 222 221 220 221 219 217 216 217 216 215 215 213 206 203 208 210 208 210 213 212 209 209 212 213 212 211 212 213 211 209 209 209 210 211 211 213 216 219 222 222 217 213 209 205 206 207 205
37 33 31 30 28 27 24 22 21 15 10 8 8 7 5 360 350 344 340 335 331 328 324 322 321 320 313 298 284 277 271 265 258 252 249 243 234 225 221 220 222 223 221 219 219 218 217 215 217 220 213 205 208 210 207 208 211 210 206 206 209 212 211 212 213 215 213 211 211 211 212 212 213 214 217 220 223 222 217 213 209 207 207 208 206
39 34 32 31 30 30 27 24 22 16 10 8 6 5 4 1 354 346 341 336 331 327 322 319 317 315 313 304 292 284 277 269 262 255 250 246 239 229 223 221 222 223 222 220 219 217 217 214 212 217 215 209 207 209 206 203 204 204 202 203 206 208 209 210 212 215 215 213 212 212 213 214 215 217 219 222 223 221 217 214 211 208 207 208 208
40 35 34 34 33 32 30 26 22 16 11 8 6 4 2 1 358 352 344 339 335 331 325 321 317 311 309 305 297 290 282 273 265 259 253 248 241 232 226 225 225 223 221 219 215 213 216 218 210 203 207 208 203 203 206 203 200 198 196 199 205 206 207 209 211 215 216 214 212 213 214 215 216 218 221 223 223 221 218 216 214 210 208 208 209
42 36 35 37 35 33 29 25 21 16 12 9 7 5 3 1 359 355 349 343 340 338 335 330 324 316 309 304 298 294 288 278 268 261 255 251 246 238 231 228 225 221 219 217 214 211 214 220 213 199 203 208 200 196 201 202 200 197 191 189 196 205 209 211 211 212 214 214 214 214 215 216 217 220 222 223 223 223 222 219 216 213 210 209 210
43 37 35 35 32 29 26 22 19 15 12 10 8 5 3 1 0 358 353 346 342 342 342 341 335 328 319 310 301 296 293 286 275 267 258 252 248 244 239 234 227 221 216 213 211 210 211 215 212 203 202 205 200 193 191 191 192 197 196 194 196 200 206 211 213 212 213 213 213 213 214 216 217 219 221 222 223 224 224 222 218 215 213 211 211
42 37 33 31 28 25 23 20 18 15 12 10 8 6 4 2 1 1 357 352 347 343 342 342 341 337 331 323 311 301 297 293 284 276 267 256 247 243 242 239 231 224 217 211 208 207 207 207 206 201 199 201 198 188 180 184 192 199 200 200 202 202 203 207 210 211 212 212 211 211 212 214 216 217 218 219 220 222 223 222 220 217 215 214 213
39 35 33 32 29 26 24 21 18 15 12 9 7 8 8 5 2 1 359 357 354 350 346 343 341 340 337 331 322 311 304 300 294 286 276 265 254 247 244 241 236 229 221 214 207 205 205 203 199 195 194 199 199 192 188 194 199 199 196 198 203 202 197 197 202 209 213 212 209 209 211 213 214 215 216 217 218 219 219 220 219 217 216 215 214
38 36 34 33 31 27 25 22 18 15 11 8 8 9 10 8 5 2 0 359 357 355 354 351 346 343 340 336 331 323 315 310 304 295 284 273 263 255 250 247 244 237 228 219 210 204 204 204 201 197 194 197 200 199 200 201 199 197 197 200 199 193 188 188 192 204 211 212 208 207 209 212 213 213 215 217 217 217 218 217 217 217 217 217 215
38 36 33 31 28 25 23 21 18 15 11 8 9 9 9 10 8 3 0 0 359 355 352 352 351 348 345 340 336 331 325 317 312 304 292 280 270 263 258 253 250 246 239 230 218 208 203 203 204 202 200 200 202 202 202 201 199 199 201 201 198 193 192 193 192 199 208 209 206 204 206 210 212 212 214 217 217 217 218 217 216 217 218 219 217
38 35 32 29 26 23 21 19 16 14 11 9 9 10 9 9 9 6 2 0 360 355 350 350 352 351 349 345 340 336 332 326 322 319 308 291 278 270 266 261 255 251 248 242 232 220 210 206 206 206 206 204 205 206 205 202 199 198 198 199 199 198 197 199 200 202 204 203 200 198 202 208 210 210 213 217 219 218 218 218 217 218 219 219 218
38 35 32 28 26 23 20 17 15 13 12 10 10 11 9 8 9 8 3 0 360 358 354 352 352 351 351 348 342 338 337 334 330 328 323 310 293 278 268 263 258 252 248 245 239 228 219 213 211 212 213 210 210 212 210 206 202 199 198 199 200 200 201 204 207 205 201 199 197 193 196 206 207 206 210 215 218 219 220 219 218 219 220 220 219
37 35 32 29 26 23 19 16 13 12 12 11 11 12 10 8 8 7 4 1 0 359 357 354 352 352 352 350 345 339 338 338 337 334 329 319 306 292 274 261 257 253 248 244 240 234 228 223 219 218 219 215 212 214 213 209 206 205 205 204 202 200 198 197 198 194 193 198 199 194 192 203 203 200 204 211 214 217 220 221 221 222 222 222 220
37 35 33 30 26 23 19 16 13 12 12 12 12 13 11 9 8 7 4 1 359 358 356 353 353 353 352 350 346 342 339 340 340 338 333 321 307 299 286 265 255 251 248 244 243 239 233 230 228 226 225 220 218 218 218 215 212 209 208 206 201 195 188 184 183 182 189 200 201 195 190 191 194 192 191 200 208 212 216 220 220 221 222 219 216
33 32 31 30 28 24 21 18 14 12 12 13 13 13 13 11 9 7 4 1 358 356 353 351 352 352 352 350 347 345 344 343 342 339 336 327 310 299 291 273 255 246 243 241 239 236 231 230 230 228 226 224 224 222 221 222 220 212 203 199 197 191 184 184 185 185 193 202 202 198 190 176 181 182 170 172 191 197 202 206 200 201 206 202 196
28 27 27 28 29 27 24 22 18 14 13 13 14 15 15 13 10 7 5 0 356 354 351 350 351 352 352 352 351 350 347 346 345 341 337 330 314 297 287 278 259 239 234 235 232 228 225 226 227 225 222 222 224 225 225 228 226 216 206 201 199 193 187 189 188 180 189 200 199 197 187 163 170 172 151 133 139 157 169 178 175 172 173 173 170
28 25 25 27 29 28 27 25 22 18 14 13 15 15 15 15 12 8 6 2 356 353 350 347 348 351 353 353 354 354 351 350 351 345 338 330 314 295 280 272 256 236 230 230 226 222 219 218 220 220 217 218 221 225 227 227 224 218 212 208 202 196 195 194 184 167 171 198 196 192 180 160 163 165 153 136 106 107 148 157 158 158 158 157 156